Rassvet-1 No. 3

operational
NORAD ID: 57170 Int'l Des: NNA 2023-091 Owner: B1440 Country: RU
LEOCIRCULARRETROGRADESSO

About Rassvet-1 No. 3

Description loading...

Live Position

Loading 3D Globe...

Upcoming Passes

Altitude History

Altitude vs Time

uPlot chart will show altitude changes over time

Two-Line Element Set

1 57170U 23091E 26061.63947221 .00011122 00000-0 48418-3 0 9999
2 57170 97.5260 123.0989 0010985 106.3522 253.8923 15.22347060147942
Epoch: Mar 2, 2026 • Age: 29 hours

Current Status

Altitude 526.4 km
Velocity 7.60 km/s
Sub-Earth Point -57.82°S, 55.47°E
Launch Date Jun 27, 2023
Age 2.6 years
Type other

Technical Details

Classification Payload
Mass 80.00 kg
Dry Mass 80.00 kg
Total Mass 80.00 kg
Length 0.80 m
Diameter 0.60 m
Span 3.00 m
Shape Box+2 pan
Manufacturer B1440
Bus Type Rassvet-1
Phase Status In Orbit
Owner/State B1440/RU

Large Constellations

Loading constellations...